Regional Weather Roundup
Issued by NWS

Home | Current Version | Previous Version | Text Only | Print | Product List | Glossary On
Versions: 1 2 3 4 5 6 7 8 9 10 11 12 13 14 15 16 17 18 19 20 21 22 23 24 25 26 27
000
ASPQ40 PGUM 211712
RWRPQ
WEATHER ROUNDUP FOR THE MARIANAS AND MICRONESIA
NATIONAL WEATHER SERVICE TIYAN GU
300 AM CHST WED FEB 22 2017

GUZ001>004-211800-
MARIANA ISLANDS-

CITY           SKY/WX    TMP DP  RH WIND       PRES   REMARKS
GUAM AIRPORT   CLEAR     79  75  89 NE8       29.96F
ANDERSEN AFB   MOCLDY    77  73  88 E14       29.97F
ROTA AIRPORT   NOT AVBL
TINIAN AP      NOT AVBL
SAIPAN AP      PTCLDY    77  73  88 E14       29.96F

$$

PMZ161-211800-
REPUBLIC OF PALAU-

CITY           SKY/WX    TMP DP  RH WIND       PRES   REMARKS
KOROR AP       MOCLDY    79  77  94 NE8       29.83F
KOROR WSO      MOCLDY    79  77  94 E6        29.84F

$$

PMZ171>174-211800-
FEDERATED STATES OF MICRONESIA-

CITY           SKY/WX    TMP DP  RH WIND       PRES   REMARKS
YAP AIRPORT    CLOUDY    79  77  94 NE8       29.86F
CHUUK AP       MOCLDY    82  75  78 NE9       29.87R
POHNPEI AP     NOT AVBL
POHNPEI WSO    CLOUDY    82  73  74 NE10      29.87F
KOSRAE AP      NOT AVBL

$$

PMZ181-211800-
REPUBLIC OF THE MARSHALL ISLANDS-

CITY           SKY/WX    TMP DP  RH WIND       PRES   REMARKS
KWAJALEIN AP   PTCLDY    81  75  83 E22       29.86S
MAJURO AP      NOT AVBL
MAJURO WSO     MOCLDY    81  73  78 NE14      29.84R

$$





USA.gov is the U.S. government's official web portal to all federal, state and local government web resources and services.